When you browse on this site, cookies collect data to enhance your experience and personalize the content and advertising you see.
Visit our Privacy Policy to learn more. By continuing to use the site, you agree to this use of cookies and data.
  • Em Portugal
  • Lista de países
  • Para 7 dias
  • Temperatura da água
  • Mapas de satélite
  • Mapa do tempo
  • Widgets de tempo
  • user-avatar
    Iniciar Sessão

    Previsão horária em Gotelp

    Hoje, 23 Julho, Terça-feira

    Tempo Temperatura Precipitação Vento Pressão Humidade
    00:00 +18°C° 0 mm 1 m/s 753 mmHg 76%
    01:00 +18°C° 0 mm 1 m/s 753 mmHg 78%
    02:00 +16°C° 0 mm 1 m/s 753 mmHg 79%
    03:00 +16°C° 0 mm 1 m/s 753 mmHg 80%
    04:00 +16°C° 0 mm 1 m/s 752 mmHg 80%
    05:00 +16°C° 0.2 mm 1 m/s 752 mmHg 83%
    06:00 +16°C° 0.2 mm 1 m/s 753 mmHg 86%
    07:00 +16°C° 0.2 mm 1 m/s 753 mmHg 89%
    08:00 +16°C° 0 mm 1 m/s 753 mmHg 88%
    09:00 +16°C° 0 mm 1 m/s 753 mmHg 88%
    10:00 +18°C° 0 mm 1 m/s 753 mmHg 87%
    11:00 +18°C° 0 mm 1 m/s 753 mmHg 87%
    12:00 +18°C° 0 mm 2 m/s 753 mmHg 87%
    13:00 +18°C° 0 mm 2 m/s 753 mmHg 87%
    14:00 +19°C° 0 mm 2 m/s 753 mmHg 84%
    15:00 +20°C° 0 mm 3 m/s 753 mmHg 81%
    16:00 +21°C° 0 mm 3 m/s 753 mmHg 79%
    17:00 +21°C° 0 mm 3 m/s 752 mmHg 80%
    18:00 +21°C° 0 mm 2 m/s 752 mmHg 81%
    19:00 +20°C° 0 mm 2 m/s 752 mmHg 83%
    20:00 +20°C° 0 mm 2 m/s 752 mmHg 86%
    21:00 +19°C° 0 mm 2 m/s 752 mmHg 88%
    22:00 +20°C° 0 mm 1 m/s 752 mmHg 91%
    23:00 +19°C° 0 mm 1 m/s 752 mmHg 93%

    Amanhã, 24 Julho, Quarta-feira

    Tempo Temperatura Precipitação Vento Pressão Humidade
    00:00 +19°C° 0 mm 1 m/s 752 mmHg 94%
    01:00 +19°C° 0 mm 1 m/s 752 mmHg 96%
    02:00 +18°C° 0 mm 1 m/s 752 mmHg 96%
    03:00 +18°C° 0 mm 1 m/s 751 mmHg 97%
    04:00 +18°C° 0 mm 1 m/s 751 mmHg 97%
    05:00 +19°C° 0 mm 1 m/s 751 mmHg 92%
    06:00 +21°C° 0 mm 1 m/s 751 mmHg 86%
    07:00 +21°C° 0 mm 2 m/s 752 mmHg 81%
    08:00 +24°C° 0.1 mm 2 m/s 752 mmHg 73%
    09:00 +25°C° 0.1 mm 2 m/s 752 mmHg 65%
    10:00 +27°C° 0.1 mm 2 m/s 752 mmHg 57%
    11:00 +28°C° 0.1 mm 2 m/s 752 mmHg 55%
    12:00 +28°C° 0.1 mm 2 m/s 752 mmHg 53%
    13:00 +29°C° 0.1 mm 2 m/s 752 mmHg 51%
    14:00 +28°C° 0.2 mm 2 m/s 752 mmHg 54%
    15:00 +28°C° 0.2 mm 2 m/s 752 mmHg 57%
    16:00 +28°C° 0.2 mm 2 m/s 752 mmHg 60%
    17:00 +26°C° 0.1 mm 2 m/s 752 mmHg 65%
    18:00 +25°C° 0.1 mm 2 m/s 751 mmHg 71%
    19:00 +24°C° 0.1 mm 2 m/s 751 mmHg 76%
    20:00 +21°C° 0 mm 2 m/s 752 mmHg 80%
    21:00 +20°C° 0 mm 2 m/s 752 mmHg 84%
    22:00 +20°C° 0 mm 1 m/s 752 mmHg 88%
    23:00 +19°C° 0 mm 1 m/s 752 mmHg 89%

    Depois de amanhã, 25 Julho, Quinta-feira

    Tempo Temperatura Precipitação Vento Pressão Humidade
    00:00 +19°C° 0 mm 1 m/s 752 mmHg 90%
    01:00 +18°C° 0 mm 1 m/s 752 mmHg 90%
    02:00 +18°C° 0 mm 1 m/s 752 mmHg 91%
    03:00 +18°C° 0 mm 1 m/s 752 mmHg 92%
    04:00 +18°C° 0 mm 1 m/s 752 mmHg 93%
    05:00 +19°C° 0 mm 1 m/s 752 mmHg 86%
    06:00 +21°C° 0 mm 1 m/s 752 mmHg 80%
    07:00 +22°C° 0 mm 1 m/s 753 mmHg 74%
    08:00 +24°C° 0 mm 2 m/s 753 mmHg 66%
    09:00 +25°C° 0 mm 2 m/s 753 mmHg 59%
    10:00 +27°C° 0 mm 2 m/s 753 mmHg 52%
    11:00 +27°C° 0 mm 2 m/s 753 mmHg 48%
    12:00 +28°C° 0 mm 2 m/s 753 mmHg 44%
    13:00 +29°C° 0 mm 3 m/s 753 mmHg 41%
    14:00 +29°C° 0 mm 3 m/s 753 mmHg 41%
    15:00 +29°C° 0 mm 4 m/s 753 mmHg 42%
    16:00 +28°C° 0 mm 4 m/s 752 mmHg 43%
    17:00 +26°C° 0 mm 3 m/s 752 mmHg 49%
    18:00 +25°C° 0 mm 3 m/s 752 mmHg 55%
    19:00 +23°C° 0 mm 2 m/s 752 mmHg 62%
    20:00 +20°C° 0 mm 2 m/s 752 mmHg 67%
    21:00 +19°C° 0 mm 2 m/s 752 mmHg 73%
    22:00 +19°C° 0 mm 1 m/s 752 mmHg 78%
    23:00 +17°C° 0 mm 2 m/s 752 mmHg 82%

    26 Julho, Sexta-feira

    Tempo Temperatura Precipitação Vento Pressão Humidade
    00:00 +17°C° 0 mm 2 m/s 752 mmHg 86%
    01:00 +16°C° 0 mm 2 m/s 752 mmHg 90%
    02:00 +16°C° 0 mm 2 m/s 752 mmHg 91%
    03:00 +16°C° 0 mm 2 m/s 752 mmHg 93%
    04:00 +15°C° 0 mm 2 m/s 752 mmHg 94%
    05:00 +17°C° 0 mm 2 m/s 751 mmHg 85%
    06:00 +19°C° 0 mm 3 m/s 751 mmHg 77%
    07:00 +21°C° 0 mm 4 m/s 751 mmHg 68%
    08:00 +22°C° 0 mm 4 m/s 751 mmHg 63%
    09:00 +25°C° 0 mm 4 m/s 751 mmHg 58%
    10:00 +26°C° 0 mm 4 m/s 752 mmHg 53%
    11:00 +26°C° 0 mm 4 m/s 751 mmHg 50%
    12:00 +27°C° 0 mm 4 m/s 751 mmHg 47%
    13:00 +27°C° 0 mm 5 m/s 751 mmHg 45%
    14:00 +27°C° 0 mm 5 m/s 750 mmHg 46%
    15:00 +26°C° 0 mm 5 m/s 750 mmHg 47%
    16:00 +26°C° 0 mm 5 m/s 750 mmHg 49%
    17:00 +23°C° 0 mm 4 m/s 750 mmHg 56%
    18:00 +22°C° 0 mm 4 m/s 750 mmHg 63%
    19:00 +20°C° 0 mm 4 m/s 750 mmHg 70%
    20:00 +19°C° 0 mm 3 m/s 750 mmHg 76%
    21:00 +18°C° 0 mm 3 m/s 750 mmHg 82%
    22:00 +17°C° 0 mm 2 m/s 750 mmHg 88%
    23:00 +17°C° 0 mm 2 m/s 750 mmHg 91%

    27 Julho, Sábado

    Tempo Temperatura Precipitação Vento Pressão Humidade
    00:00 +17°C° 0 mm 2 m/s 750 mmHg 93%
    01:00 +17°C° 0 mm 2 m/s 749 mmHg 95%
    02:00 +17°C° 0 mm 2 m/s 749 mmHg 96%
    03:00 +16°C° 0 mm 2 m/s 749 mmHg 96%
    04:00 +16°C° 0 mm 2 m/s 749 mmHg 97%
    05:00 +18°C° 0 mm 3 m/s 749 mmHg 90%
    06:00 +19°C° 0 mm 3 m/s 749 mmHg 83%
    07:00 +21°C° 0 mm 4 m/s 749 mmHg 76%
    08:00 +23°C° 0 mm 4 m/s 749 mmHg 70%
    09:00 +25°C° 0 mm 4 m/s 749 mmHg 64%
    10:00 +27°C° 0 mm 5 m/s 749 mmHg 57%
    11:00 +27°C° 0 mm 5 m/s 749 mmHg 55%
    12:00 +28°C° 0 mm 5 m/s 749 mmHg 52%
    13:00 +29°C° 0 mm 5 m/s 748 mmHg 50%
    14:00 +29°C° 0 mm 5 m/s 748 mmHg 52%
    15:00 +28°C° 0 mm 5 m/s 748 mmHg 54%
    16:00 +28°C° 0 mm 5 m/s 748 mmHg 57%
    17:00 +27°C° 0.1 mm 5 m/s 748 mmHg 63%
    18:00 +26°C° 0.1 mm 4 m/s 747 mmHg 69%
    19:00 +23°C° 0.1 mm 4 m/s 747 mmHg 75%
    20:00 +22°C° 0 mm 3 m/s 747 mmHg 79%
    21:00 +22°C° 0 mm 3 m/s 748 mmHg 83%
    22:00 +21°C° 0 mm 3 m/s 748 mmHg 87%
    23:00 +20°C° 0 mm 3 m/s 748 mmHg 89%

    28 Julho, Domingo

    Tempo Temperatura Precipitação Vento Pressão Humidade
    00:00 +20°C° 0 mm 3 m/s 748 mmHg 90%
    01:00 +20°C° 0 mm 3 m/s 748 mmHg 92%
    02:00 +19°C° 0 mm 3 m/s 748 mmHg 93%
    03:00 +19°C° 0 mm 3 m/s 747 mmHg 94%
    04:00 +19°C° 0 mm 3 m/s 747 mmHg 95%
    05:00 +20°C° 0 mm 3 m/s 748 mmHg 87%
    06:00 +22°C° 0 mm 3 m/s 748 mmHg 80%
    07:00 +24°C° 0 mm 3 m/s 748 mmHg 73%
    08:00 +26°C° 0 mm 4 m/s 748 mmHg 65%
    09:00 +28°C° 0 mm 5 m/s 748 mmHg 57%
    10:00 +29°C° 0 mm 5 m/s 748 mmHg 50%
    11:00 +30°C° 0 mm 5 m/s 748 mmHg 48%
    12:00 +30°C° 0 mm 5 m/s 748 mmHg 46%
    13:00 +32°C° 0 mm 5 m/s 748 mmHg 44%
    14:00 +30°C° 0 mm 5 m/s 748 mmHg 47%
    15:00 +30°C° 0 mm 5 m/s 748 mmHg 49%
    16:00 +29°C° 0 mm 5 m/s 748 mmHg 52%
    17:00 +28°C° 0 mm 5 m/s 748 mmHg 57%
    18:00 +26°C° 0 mm 4 m/s 748 mmHg 63%
    19:00 +25°C° 0 mm 4 m/s 748 mmHg 68%
    20:00 +23°C° 0 mm 4 m/s 748 mmHg 72%
    21:00 +22°C° 0 mm 3 m/s 748 mmHg 76%
    22:00 +21°C° 0 mm 3 m/s 748 mmHg 79%
    23:00 +20°C° 0 mm 3 m/s 749 mmHg 80%
    Mostrar mais